Clermont County, Batavia, OH

12:11 AM EDT on April 23, 2018 (GMT -0400)
Clermont County, Batavia

Weather History for KI69 - January, 2014

Change the Weather History Date:

Saturday, January 18, 2014

  Actual Average (KLUK) Record (KLUK)
Temperature  
Mean Temperature 21 °F -  
Max Temperature 30 °F 38 °F 64 °F (1952)
Min Temperature 14 °F 21 °F -15 °F (1977)
Degree Days  
Heating Degree Days 44    
Moisture  
Dew Point 17 °F    
Average Humidity 79    
Maximum Humidity 100    
Minimum Humidity 59    
Precipitation  
Precipitation 0.00 in - - ()
Sea Level Pressure  
Sea Level Pressure 29.94 in    
Wind  
Wind Speed 6 mph (SSW)    
Max Wind Speed 13 mph    
Max Gust Speed 17 mph    
Visibility 8 miles    
Events Snow    
Averages and records for this station are not official NWS values.
T = Trace of Precipitation, MM = Missing Value Source: NWS Daily Summary

Daily Weather History Graph

Daily Weather History Graph

Search for Another Location

Airport or City:

Astronomy

Jan. 18, 2014 Rise Set
Actual Time 7:53 AM EST 5:41 PM EST
Civil Twilight 7:24 AM EST 6:10 PM EST
Nautical Twilight 6:51 AM EST 6:43 PM EST
Astronomical Twilight 6:19 AM EST 7:15 PM EST
Moon 8:21 PM EST (1/18) 8:53 AM EST (1/18)
Length of Visible Light 10h 46m
Length of Day
9h 48m
Waning Gibbous, 94% of the Moon is Illuminated
Jan 18
Waning Gibbous
Jan 24
Last Quarter
Jan 30
New
Feb 6
First Quarter
Feb 14
Full

Hourly Weather History & Observations

Time (EST) Temp. Windchill Dew Point Humidity Pressure Visibility Wind Dir Wind Speed Gust Speed Precip Events Conditions
12:13 AM 14.0 °F 6.5 °F 8.6 °F 79% 30.05 in 10.0 mi WSW 4.6 mph - N/A   Overcast
12:33 AM 14.0 °F 6.5 °F 8.6 °F 79% 30.05 in 10.0 mi WSW 4.6 mph - N/A   Overcast
12:54 AM 14.0 °F 2.9 °F 8.6 °F 79% 30.05 in 10.0 mi WSW 8.1 mph - N/A   Overcast
1:13 AM 14.0 °F 3.9 °F 8.6 °F 79% 30.04 in 10.0 mi WSW 6.9 mph - N/A   Overcast
1:33 AM 14.0 °F 5.1 °F 8.6 °F 79% 30.04 in 10.0 mi WSW 5.8 mph - N/A   Overcast
1:54 AM 15.8 °F 7.2 °F 10.4 °F 79% 30.03 in 10.0 mi WSW 5.8 mph - N/A Snow Light Snow
2:13 AM 15.8 °F 7.2 °F 10.4 °F 79% 30.03 in 10.0 mi WSW 5.8 mph - N/A Snow Light Snow
2:33 AM 15.8 °F 8.6 °F 10.4 °F 79% 30.03 in 10.0 mi SW 4.6 mph - N/A Snow Light Snow
2:54 AM 15.8 °F 8.6 °F 10.4 °F 79% 30.03 in 10.0 mi SW 4.6 mph - N/A Snow Light Snow
3:13 AM 15.8 °F 8.6 °F 12.2 °F 86% 30.03 in 10.0 mi SW 4.6 mph - N/A Snow Light Snow
3:33 AM 15.8 °F 7.2 °F 12.2 °F 86% 30.03 in 10.0 mi SW 5.8 mph - N/A Snow Light Snow
3:54 AM 15.8 °F 5.1 °F 12.2 °F 86% 30.03 in 7.0 mi SW 8.1 mph - N/A Snow Light Snow
4:13 AM 15.8 °F 5.1 °F 12.2 °F 86% 30.03 in 7.0 mi SW 8.1 mph - N/A Snow Light Snow
4:33 AM 15.8 °F 6.1 °F 12.2 °F 86% 30.03 in 10.0 mi SW 6.9 mph - N/A Snow Light Snow
4:54 AM 17.6 °F 9.3 °F 12.2 °F 79% 30.02 in 5.0 mi SW 5.8 mph - N/A Snow Light Snow
5:13 AM 17.6 °F 9.3 °F 12.2 °F 79% 30.03 in 10.0 mi SW 5.8 mph - N/A Snow Light Snow
5:34 AM 17.6 °F 9.3 °F 12.2 °F 79% 30.03 in 10.0 mi SW 5.8 mph - N/A Snow Light Snow
5:53 AM 17.6 °F 9.3 °F 12.2 °F 79% 30.03 in 10.0 mi SW 5.8 mph - N/A Snow Light Snow
6:13 AM 17.6 °F 10.7 °F 12.2 °F 79% 30.02 in 5.0 mi SSW 4.6 mph - N/A Snow Light Snow
6:34 AM 17.6 °F 10.7 °F 12.2 °F 79% 30.01 in 7.0 mi SSW 4.6 mph - N/A Snow Light Snow
6:53 AM 17.6 °F 9.3 °F 12.2 °F 79% 30.02 in 10.0 mi SW 5.8 mph - N/A Snow Light Snow
7:13 AM 17.6 °F 9.3 °F 12.2 °F 79% 30.02 in 10.0 mi SW 5.8 mph - N/A Snow Light Snow
7:34 AM 17.6 °F 6.4 °F 12.2 °F 79% 30.04 in 10.0 mi SW 9.2 mph - N/A   Overcast
7:54 AM 17.6 °F 8.2 °F 12.2 °F 79% 30.03 in 10.0 mi SW 6.9 mph - N/A Snow Light Snow
8:13 AM 17.6 °F 8.2 °F 12.2 °F 79% 30.03 in 10.0 mi SW 6.9 mph - N/A Snow Light Snow
8:34 AM 17.6 °F 9.3 °F 14.0 °F 86% 30.03 in 7.0 mi SW 5.8 mph - N/A Snow Light Snow
8:54 AM 19.4 °F 9.5 °F 14.0 °F 80% 30.03 in 10.0 mi SW 8.1 mph - N/A Snow Light Snow
9:13 AM 19.4 °F 9.5 °F 14.0 °F 80% 30.04 in 4.0 mi SW 8.1 mph - N/A Snow Light Snow
9:34 AM 19.4 °F 11.5 °F 14.0 °F 80% 30.04 in 0.8 mi SW 5.8 mph - N/A Snow Light Snow
9:54 AM 19.4 °F 10.4 °F 15.8 °F 86% 30.04 in 3.0 mi SW 6.9 mph - N/A Snow Light Snow
10:13 AM 21.2 °F 12.6 °F 15.8 °F 80% 30.04 in 5.0 mi SW 6.9 mph - N/A Snow Light Snow
10:34 AM 21.2 °F 10.9 °F 15.8 °F 80% 30.04 in 7.0 mi SW 9.2 mph - N/A Snow Light Snow
10:54 AM 21.2 °F 10.9 °F 15.8 °F 80% 30.03 in 10.0 mi WSW 9.2 mph - N/A Snow Light Snow
11:13 AM 23.0 °F 13.9 °F 15.8 °F 74% 30.02 in 10.0 mi SW 8.1 mph - N/A Snow Light Snow
11:34 AM 23.0 °F 12.4 °F 15.8 °F 74% 30.02 in 10.0 mi WSW 10.4 mph - N/A   Overcast
11:53 AM 24.8 °F 15.3 °F 15.8 °F 69% 30.00 in 10.0 mi WSW 9.2 mph - N/A   Overcast
12:13 PM 26.6 °F 16.8 °F 15.8 °F 64% 29.99 in 10.0 mi SW 10.4 mph 17.3 mph N/A   Mostly Cloudy
12:34 PM 26.6 °F 17.5 °F 15.8 °F 64% 29.98 in 10.0 mi SW 9.2 mph 16.1 mph N/A   Scattered Clouds
12:53 PM 26.6 °F 16.8 °F 15.8 °F 64% 29.96 in 10.0 mi SSW 10.4 mph - N/A   Scattered Clouds
1:13 PM 28.4 °F 20.4 °F 15.8 °F 59% 29.94 in 10.0 mi SSW 8.1 mph - N/A   Clear
1:34 PM 28.4 °F 19.1 °F 15.8 °F 59% 29.92 in 10.0 mi South 10.4 mph - N/A   Scattered Clouds
1:53 PM 28.4 °F 18.0 °F 17.6 °F 64% 29.91 in 10.0 mi South 12.7 mph - N/A   Scattered Clouds
2:13 PM 28.4 °F 19.1 °F 17.6 °F 64% 29.89 in 10.0 mi South 10.4 mph - N/A   Mostly Cloudy
2:34 PM 28.4 °F 19.1 °F 17.6 °F 64% 29.88 in 10.0 mi South 10.4 mph - N/A   Overcast
2:53 PM 28.4 °F 19.1 °F 17.6 °F 64% 29.88 in 10.0 mi South 10.4 mph - N/A   Overcast
3:13 PM 28.4 °F 20.4 °F 15.8 °F 59% 29.88 in 10.0 mi South 8.1 mph - N/A   Overcast
3:34 PM 28.4 °F 22.2 °F 15.8 °F 59% 29.89 in 10.0 mi South 5.8 mph - N/A   Overcast
3:53 PM 28.4 °F 23.3 °F 17.6 °F 64% 29.90 in 10.0 mi South 4.6 mph - N/A   Overcast
4:13 PM 28.4 °F 22.2 °F 17.6 °F 64% 29.89 in 10.0 mi South 5.8 mph - N/A   Overcast
4:34 PM 28.4 °F 22.2 °F 19.4 °F 69% 29.88 in 10.0 mi South 5.8 mph - N/A   Overcast
4:53 PM 28.4 °F 21.2 °F 19.4 °F 69% 29.87 in 3.0 mi SSE 6.9 mph - N/A Snow Light Snow
5:13 PM 28.4 °F 23.3 °F 21.2 °F 74% 29.85 in 5.0 mi SE 4.6 mph - N/A Snow Light Snow
5:34 PM 28.4 °F 21.2 °F 21.2 °F 74% 29.85 in 10.0 mi SSE 6.9 mph - N/A   Overcast
5:53 PM 28.4 °F 21.2 °F 21.2 °F 74% 29.85 in 3.0 mi SE 6.9 mph - N/A Snow Light Snow
6:13 PM 28.4 °F 23.3 °F 23.0 °F 80% 29.85 in 2.0 mi SSE 4.6 mph - N/A Snow Light Snow
6:34 PM 26.6 °F 20.0 °F 23.0 °F 86% 29.85 in 2.0 mi SSE 5.8 mph - N/A Snow Light Snow
6:53 PM 26.6 °F 21.2 °F 24.8 °F 93% 29.86 in 2.5 mi SSE 4.6 mph - N/A Snow Light Snow
7:13 PM 26.6 °F 20.0 °F 24.8 °F 93% 29.85 in 2.0 mi SSE 5.8 mph - N/A Snow Light Snow
7:34 PM 26.6 °F 22.6 °F 24.8 °F 93% 29.84 in 2.5 mi SE 3.5 mph - N/A Snow Light Snow
7:53 PM 26.6 °F 20.0 °F 26.6 °F 100% 29.84 in 2.0 mi SE 5.8 mph - N/A Snow Light Snow
8:13 PM 26.6 °F 21.2 °F 26.6 °F 100% 29.83 in 2.0 mi SSE 4.6 mph - N/A Snow Light Snow
8:34 PM 28.4 °F 24.6 °F 26.6 °F 93% 29.82 in 3.0 mi SSE 3.5 mph - N/A Snow Light Snow
8:53 PM 28.4 °F 23.3 °F 26.6 °F 93% 29.82 in 4.0 mi SSE 4.6 mph - N/A Snow Light Snow
9:13 PM 28.4 °F - 26.6 °F 93% 29.81 in 7.0 mi Calm Calm - N/A Snow Light Snow
9:34 PM 28.4 °F 23.3 °F 26.6 °F 93% 29.80 in 10.0 mi SE 4.6 mph - N/A Snow Light Snow
9:53 PM 28.4 °F 23.3 °F 26.6 °F 93% 29.80 in 7.0 mi SE 4.6 mph - N/A Snow Light Snow
10:13 PM 28.4 °F 24.6 °F 26.6 °F 93% 29.79 in 4.0 mi SE 3.5 mph - N/A Snow Light Snow
10:34 PM 28.4 °F 23.3 °F 26.6 °F 93% 29.78 in 7.0 mi SSE 4.6 mph - N/A Snow Light Snow
10:53 PM 28.4 °F 23.3 °F 26.6 °F 93% 29.78 in 10.0 mi SE 4.6 mph - N/A   Overcast
11:13 PM 28.4 °F 24.6 °F 26.6 °F 93% 29.77 in 10.0 mi South 3.5 mph - N/A   Overcast
11:34 PM 28.4 °F - 26.6 °F 93% 29.77 in 10.0 mi Calm Calm - N/A   Overcast
11:53 PM 30.2 °F 26.7 °F 26.6 °F 86% 29.77 in 10.0 mi South 3.5 mph - N/A   Overcast